Weather reports worldwide

Advertisment
Ueckermünde, Germany (10193): temperature & dewpoint: 20.03.2019 08:00:00 - 26.03.2019 08:00:00 (CET)Ueckermünde, Germany (10193): temperature 5cm & temperature -5cm: 20.03.2019 08:00:00 - 26.03.2019 08:00:00 (CET)Ueckermünde, Germany (10193): temperature -20cm & temperature -100cm: 20.03.2019 08:00:00 - 26.03.2019 08:00:00 (CET)Ueckermünde, Germany (10193): wind speed & gusts: 20.03.2019 08:00:00 - 26.03.2019 08:00:00 (CET)Ueckermünde, Germany (10193): wind direction: 20.03.2019 08:00:00 - 26.03.2019 08:00:00 (CET)Ueckermünde, Germany (10193): reduced air pressure: 20.03.2019 08:00:00 - 26.03.2019 08:00:00 (CET)Ueckermünde, Germany (10193): visibility: 20.03.2019 08:00:00 - 26.03.2019 08:00:00 (CET)Ueckermünde, Germany (10193): sunshine duration: 20.03.2019 08:00:00 - 26.03.2019 08:00:00 (CET)Ueckermünde, Germany (10193): precipitation: 20.03.2019 08:00:00 - 26.03.2019 08:00:00 (CET)
Date & Time tt [°C] td [°C] tt 5cm [°C] tt -5cm [°C] tt -20cm [°C] tt -100cm [°C] ff [km/h] ff [kn] fx [km/h] fx [kn] dd ppp [hPa] vv [km] sd [min] rr [mm]
26.03.2019 08:00:00 4,9 1,6 5,0 3,6 4,5 6,8 29 16 48 26 W 1020,0 39 21 0,0
26.03.2019 07:00:00 3,9 1,1 3,4 2,3 4,6 6,8 21 11 40 21 W 1020,2 34 0 0,0
26.03.2019 06:00:00 3,1 1,2 2,2 1,4 4,7 6,8 23 12 42 23 W 1020,6 23 0 0,0
26.03.2019 05:00:00 1,6 0,7 0,4 1,4 4,8 6,9 18 10 27 15 WSW 1020,3 13 0 0,0
26.03.2019 04:00:00 1,4 0,6 0,2 1,5 5,0 6,9 15 8 22 12 SW 1020,6 11 0 0,0
26.03.2019 03:00:00 1,1 0,4 -0,1 1,5 5,2 6,9 15 8 21 11 WSW 1021,2 10 0 0,0
26.03.2019 02:00:00 1,2 0,4 -0,2 1,4 5,5 6,9 14 8 19 11 WSW 1021,5 11 0 0,0
26.03.2019 01:00:00 1,5 0,6 -0,3 1,9 5,7 6,9 11 6 16 9 WSW 1021,6 15 0 0,0
26.03.2019 00:00:00 2,4 1,1 0,6 2,3 6,0 6,9 11 6 18 10 W 1021,3 16 0 0,0
25.03.2019 23:00:00 1,9 0,6 0,2 3,0 6,2 6,9 10 5 16 9 WSW 1021,0 14 0 0,0
25.03.2019 22:00:00 3,0 1,4 2,0 3,8 6,4 6,9 8 4 15 8 W 1020,7 20 0 0,0
25.03.2019 21:00:00 4,0 2,2 1,5 4,2 6,6 6,9 6 3 22 12 NNW 1020,0 20 0 0,0
25.03.2019 20:00:00 4,4 2,2 3,2 4,6 6,8 6,9 11 6 25 13 NNW 1019,5 41 0 0,0
25.03.2019 19:00:00 4,5 1,5 3,6 5,5 6,9 6,9 16 9 34 19 N 1018,3 70 4 0,0
25.03.2019 18:00:00 5,1 1,7 5,1 6,6 7,0 6,9 17 9 40 21 N 1016,7 70 1 0,0
25.03.2019 17:00:00 6,1 2,4 6,1 7,6 6,9 6,9 18 10 34 18 NNW 1015,2 70 0 0,0
25.03.2019 16:00:00 6,8 1,7 7,3 9,1 6,7 6,9 16 8 29 16 NNW 1014,1 66 19 0,0
25.03.2019 15:00:00 7,2 1,0 7,5 9,4 6,4 6,9 15 8 30 16 NW 1013,2 55 18 0,0
25.03.2019 14:00:00 7,3 1,2 9,2 9,1 6,1 6,9 19 10 35 19 NW 1012,7 35 7 0,0
25.03.2019 13:00:00 7,2 1,4 9,3 8,8 5,7 6,9 15 8 33 18 NNW 1011,9 41 13 0,0
25.03.2019 12:00:00 6,6 2,4 7,8 8,0 5,4 6,9 14 7 38 20 NW 1011,3 67 21 0,0
25.03.2019 11:00:00 4,9 2,0 4,7 6,4 5,2 6,9 19 10 36 19 WNW 1010,6 70 5 0,0
25.03.2019 10:00:00 4,6 2,3 4,8 5,0 5,1 6,9 19 10 33 18 W 1010,2 40 1 0,0
25.03.2019 09:00:00 3,8 2,5 3,6 4,0 5,0 6,9 18 10 26 14 WSW 1009,8 21 0 0,2
25.03.2019 08:00:00 2,9 1,7 2,9 3,0 5,1 6,9 19 10 29 15 SW 1009,5 12 0 0,5
25.03.2019 07:00:00 2,4 1,1 2,0 2,4 5,2 6,9 15 8 24 13 SSW 1009,8 14 0 1,2
25.03.2019 06:00:00 1,9 -0,6 1,6 1,9 5,3 6,9 16 9 21 11 S 1010,4 30 0 0,0
25.03.2019 05:00:00 1,8 -0,9 0,9 1,7 5,5 6,9 11 6 16 8 SSW 1011,3 45 0 0,0
25.03.2019 04:00:00 1,1 -1,4 -0,3 1,9 5,7 6,9 12 7 16 9 S 1012,4 14 0 0,0
25.03.2019 03:00:00 2,9 -0,6 1,5 2,7 5,9 6,9 11 6 23 12 SSW 1013,8 51 0 0,0
25.03.2019 02:00:00 2,7 -0,7 2,0 2,5 6,1 6,9 12 6 18 10 SW 1015,0 49 0 0,0
25.03.2019 01:00:00 2,4 -1,0 1,4 2,5 6,3 6,9 12 6 16 9 SW 1015,9 46 0 0,0
25.03.2019 00:00:00 2,5 -1,1 1,2 2,6 6,6 6,9 11 6 14 8 SW 1017,0 44 0 0,0
24.03.2019 23:00:00 1,9 -1,0 0,0 3,1 6,9 6,9 9 5 13 7 SW 1018,0 37 0 0,0
24.03.2019 22:00:00 2,1 -0,8 0,0 3,3 7,2 6,9 8 4 10 5 SSW 1018,7 33 0 0,0
24.03.2019 21:00:00 2,9 -0,7 -1,0 4,0 7,5 6,9 7 4 10 5 SW 1019,4 28 0 0,0
24.03.2019 20:00:00 4,0 -0,2 0,0 5,2 7,8 6,9 7 4 10 5 SW 1020,1 28 0 0,0
24.03.2019 19:00:00 5,6 0,0 2,4 6,5 8,0 6,9 8 4 14 8 WSW 1020,7 43 2 0,0
24.03.2019 18:00:00 7,2 -0,3 5,5 8,2 8,0 6,8 11 6 19 11 W 1021,3 59 60 0,0
24.03.2019 17:00:00 8,9 -0,2 9,5 9,6 7,9 6,8 9 5 19 10 W 1022,0 47 52 0,0
24.03.2019 16:00:00 8,5 0,5 10,4 10,1 7,7 6,8 8 4 19 10 NNW 1022,7 36 22 0,0
24.03.2019 15:00:00 8,8 1,4 13,0 10,8 7,4 6,8 11 6 18 10 NW 1023,5 30 47 0,0
24.03.2019 14:00:00 7,5 1,8 9,6 10,1 7,1 6,8 8 4 14 8 NW 1024,3 37 0 0,0
24.03.2019 13:00:00 7,5 0,5 9,2 9,6 6,9 6,8 8 4 15 8 W 1025,3 41 0 0,0
24.03.2019 12:00:00 7,1 1,6 9,1 9,3 6,6 6,8 7 4 12 7 NW 1026,1 33 0 0,0
24.03.2019 11:00:00 6,7 2,1 7,9 8,3 6,3 6,8 8 4 15 8 W 1026,8 34 1 0,0
24.03.2019 10:00:00 6,3 2,9 8,1 7,3 6,1 6,8 9 5 17 9 WNW 1027,4 29 0 0,0
24.03.2019 09:00:00 5,0 2,0 6,1 5,6 6,1 6,8 8 4 14 7 WNW 1027,7 30 0 0,0
24.03.2019 08:00:00 3,6 1,7 3,8 3,9 6,2 6,8 6 3 11 6 WSW 1027,7 29 0 0,0
24.03.2019 07:00:00 2,9 1,2 1,9 3,2 6,4 6,8 7 4 12 6 W 1028,2 30 0 0,0
24.03.2019 06:00:00 2,8 0,9 0,9 3,2 6,6 6,8 8 4 10 6 WNW 1028,3 31 0 0,0
24.03.2019 05:00:00 2,7 1,2 1,2 3,4 6,8 6,8 7 4 9 5 WSW 1028,4 28 0 0,0
24.03.2019 04:00:00 3,2 1,4 1,2 3,7 7,0 6,7 6 3 10 6 SW 1028,7 32 0 0,0
24.03.2019 03:00:00 3,2 1,3 0,8 4,0 7,2 6,7 7 4 12 6 W 1028,7 29 0 0,0
24.03.2019 02:00:00 4,1 1,8 2,0 4,4 7,4 6,7 8 4 13 7 WSW 1028,8 31 0 0,0
24.03.2019 01:00:00 5,0 2,0 2,7 4,8 7,6 6,7 8 4 16 9 W 1028,7 33 0 0,0
24.03.2019 00:00:00 5,6 2,4 4,1 5,2 7,9 6,7 10 5 18 10 WNW 1028,7 29 0 0,0
23.03.2019 23:00:00 6,3 2,7 4,5 5,3 8,1 6,7 12 6 21 11 WNW 1028,7 26 0 0,0
23.03.2019 22:00:00 6,7 3,2 4,8 5,5 8,4 6,7 11 6 20 11 W 1028,5 25 0 0,0
23.03.2019 21:00:00 6,8 3,1 4,2 6,0 8,8 6,7 11 6 18 10 W 1028,3 22 0 0,0
23.03.2019 20:00:00 6,9 3,4 2,7 6,9 9,1 6,7 8 5 15 8 W 1028,3 16 0 0,0
23.03.2019 19:00:00 8,0 4,1 5,3 8,4 9,2 6,7 11 6 22 12 WNW 1027,8 21 2 0,0
23.03.2019 18:00:00 10,2 5,0 8,9 10,3 9,2 6,7 16 9 31 17 WNW 1027,1 17 33 0,0
23.03.2019 17:00:00 11,2 6,1 11,0 11,3 9,2 6,6 15 8 32 17 WNW 1026,9 17 18 0,0
23.03.2019 16:00:00 11,0 6,7 11,4 12,1 9,0 6,6 16 9 31 17 NW 1026,8 13 1 0,0
23.03.2019 15:00:00 10,9 6,6 11,5 12,8 8,7 6,6 14 8 26 14 NW 1026,5 13 1 0,0
23.03.2019 14:00:00 11,8 6,9 15,4 13,7 8,3 6,6 9 5 19 11 NNW 1026,4 9 56 0,0
23.03.2019 13:00:00 10,5 6,0 14,4 12,0 8,0 6,6 11 6 23 12 NW 1026,2 6 48 0,0
23.03.2019 12:00:00 9,6 6,4 11,5 10,1 7,8 6,6 14 8 27 14 NW 1026,2 5 0 0,0
23.03.2019 11:00:00 8,6 7,7 9,2 9,5 7,7 6,6 15 8 22 12 WNW 1025,8 2,4 0 0,0
23.03.2019 10:00:00 8,3 7,4 9,2 9,3 7,5 6,6 12 6 22 12 W 1025,3 2,6 0 0,0
23.03.2019 09:00:00 8,2 7,4 9,2 8,7 7,4 6,6 11 6 18 10 SW 1024,8 2,4 0 0,0
23.03.2019 08:00:00 7,7 7,2 8,1 7,7 7,4 6,6 12 6 20 11 SW 1025,2 1,9 0 0,0
23.03.2019 07:00:00 7,6 7,2 7,6 7,2 7,4 6,5 12 6 29 15 S 1025,1 1,7 0 0,0
23.03.2019 06:00:00 7,7 7,5 7,5 7,0 7,4 6,5 18 10 29 16 S 1025,2 1,7 0 0,0
23.03.2019 05:00:00 7,4 7,2 7,2 6,7 7,4 6,5 18 10 30 16 S 1025,6 1,0 0 0,0
23.03.2019 04:00:00 7,2 6,9 6,9 6,3 7,6 6,5 18 10 31 17 S 1025,8 1,4 0 0,0
23.03.2019 03:00:00 6,9 6,3 6,2 5,7 7,7 6,5 16 9 25 14 S 1026,4 3,3 0 0,0
23.03.2019 02:00:00 7,1 6,1 6,0 5,9 7,9 6,5 15 8 22 12 S 1026,8 4,9 0 0,0
23.03.2019 01:00:00 6,9 6,0 5,0 6,3 8,1 6,5 9 5 15 8 S 1027,6 4,9 0 0,0
23.03.2019 00:00:00 7,7 6,3 5,4 7,1 8,3 6,5 8 5 23 12 S 1028,0 6 0 0,0
22.03.2019 23:00:00 9,4 7,0 8,2 8,1 8,4 6,5 16 9 28 15 SSW 1028,6 8 0 0,0
22.03.2019 22:00:00 9,6 7,3 9,0 8,4 8,4 6,4 11 6 18 10 S 1029,4 8 0 0,0
22.03.2019 21:00:00 9,7 7,1 9,1 8,6 8,5 6,4 12 7 19 11 S 1029,9 10 0 0,0
22.03.2019 20:00:00 9,9 7,3 9,5 8,9 8,5 6,4 11 6 19 10 SSE 1030,3 10 0 0,0
22.03.2019 19:00:00 10,0 7,5 9,6 9,1 8,6 6,4 10 6 22 12 SSE 1030,7 5 0 0,0
22.03.2019 18:00:00 10,1 7,5 9,8 9,4 8,6 6,4 11 6 16 9 SSE 1030,9 7 0 0,0
22.03.2019 17:00:00 9,1 7,4 9,2 9,6 8,6 6,4 7 4 13 7 E 1031,5 17 0 0,0
22.03.2019 16:00:00 8,9 7,0 9,1 9,9 8,6 6,4 8 4 15 8 E 1032,1 24 0 0,0
22.03.2019 15:00:00 8,6 6,8 9,2 10,3 8,6 6,4 10 6 16 9 ENE 1032,5 38 0 0,0
22.03.2019 14:00:00 8,2 6,9 8,9 10,5 8,5 6,3 10 6 16 9 E 1033,1 21 0 0,0
22.03.2019 13:00:00 8,2 6,7 8,9 10,8 8,3 6,3 9 5 16 9 ENE 1033,6 33 0 0,0
22.03.2019 12:00:00 8,4 6,6 9,6 11,2 8,1 6,3 8 4 10 6 ENE 1033,8 34 0 0,0
22.03.2019 11:00:00 8,7 7,0 9,9 10,9 7,9 6,3 5 3 9 5 NE 1034,0 35 0 0,0
22.03.2019 10:00:00 8,2 6,6 9,5 9,8 7,8 6,3 3 2 6 3 NNE 1034,2 25 0 0,0
22.03.2019 09:00:00 7,7 6,3 8,3 8,6 7,8 6,3 3 2 9 5 N 1034,3 10 0 0,0
22.03.2019 08:00:00 7,6 6,6 7,8 8,1 7,8 6,3 3 2 10 5 NNW 1034,0 7 0 0,0
22.03.2019 07:00:00 7,4 6,8 7,3 7,7 7,9 6,3 5 3 12 6 NW 1033,5 8 0 0,0
22.03.2019 06:00:00 7,3 6,9 7,2 7,8 7,9 6,3 7 4 22 12 NW 1033,2 7 0 0,0
22.03.2019 05:00:00 7,5 7,2 7,4 8,1 8,0 6,3 14 7 25 13 NNE 1033,1 1,3 0 0,0
22.03.2019 04:00:00 9,1 7,4 8,8 8,3 8,0 6,2 6 4 19 11 NW 1032,7 8 0 0,0
22.03.2019 03:00:00 9,7 7,5 9,2 8,3 8,1 6,2 10 5 28 15 WNW 1032,2 10 0 0,0
22.03.2019 02:00:00 9,6 7,4 8,8 8,3 8,1 6,2 13 7 27 14 W 1031,6 9 0 0,0
22.03.2019 01:00:00 10,2 7,4 9,5 8,6 8,2 6,2 16 8 28 15 W 1032,0 9 0 0,0
22.03.2019 00:00:00 10,4 7,6 9,7 8,8 8,3 6,2 16 9 30 16 WSW 1032,0 10 0 0,0
21.03.2019 23:00:00 10,4 7,5 9,8 8,9 8,3 6,2 15 8 27 15 W 1032,0 10 0 0,0
21.03.2019 22:00:00 10,7 7,5 10,1 9,0 8,4 6,2 16 9 32 17 W 1032,3 9 0 0,0
21.03.2019 21:00:00 10,8 7,3 10,2 9,2 8,5 6,2 14 8 29 15 W 1032,2 9 0 0,0
21.03.2019 20:00:00 10,9 7,2 10,3 9,5 8,5 6,2 16 9 31 17 W 1032,0 10 0 0,0
21.03.2019 19:00:00 11,5 7,3 10,9 10,0 8,5 6,2 18 10 36 19 WNW 1031,7 11 0 0,0
21.03.2019 18:00:00 12,6 8,3 11,9 10,8 8,5 6,2 11 6 30 16 W 1030,9 12 0 0,0
21.03.2019 17:00:00 13,3 8,3 13,0 11,7 8,3 6,2 21 11 31 17 W 1030,9 18 3 0,0
21.03.2019 16:00:00 13,5 8,2 13,8 12,4 8,0 6,2 24 13 36 20 WSW 1030,9 15 36 0,0
21.03.2019 15:00:00 13,1 8,3 13,1 12,3 7,7 6,2 22 12 44 24 WSW 1031,1 14 2 0,0
21.03.2019 14:00:00 13,1 8,2 15,4 11,9 7,4 6,2 26 14 36 19 WSW 1031,8 17 13 0,0
21.03.2019 13:00:00 11,9 7,7 12,9 10,8 7,2 6,2 23 13 36 19 SW 1032,1 13 0 0,0
21.03.2019 12:00:00 11,1 7,7 11,4 9,7 7,0 6,2 18 10 35 19 WSW 1032,6 10 0 0,0
21.03.2019 11:00:00 11,1 7,1 11,3 9,8 6,8 6,2 20 11 32 17 WSW 1032,6 11 0 0,0
21.03.2019 10:00:00 11,1 7,0 12,5 9,6 6,6 6,2 26 14 34 18 WSW 1032,4 7 0 0,0
21.03.2019 09:00:00 10,1 7,6 10,5 8,4 6,4 6,2 18 10 29 15 WSW 1032,3 4,9 0 0,0
21.03.2019 08:00:00 9,3 7,3 9,3 7,3 6,4 6,2 18 10 26 14 SW 1032,1 4,7 0 0,0
21.03.2019 07:00:00 8,5 6,9 8,1 6,6 6,4 6,2 13 7 22 12 SW 1031,8 4,2 0 0,0
21.03.2019 06:00:00 8,5 6,9 7,9 6,5 6,4 6,2 10 5 23 12 SW 1031,7 4,1 0 0,0
21.03.2019 05:00:00 8,6 6,7 7,8 6,5 6,4 6,2 11 6 17 9 WSW 1031,6 5 0 0,0
21.03.2019 04:00:00 8,5 6,6 7,8 6,4 6,4 6,2 13 7 20 11 WSW 1031,5 8 0 0,0
21.03.2019 03:00:00 7,7 6,0 6,2 6,2 6,5 6,2 9 5 21 11 WSW 1031,9 8 0 0,0
21.03.2019 02:00:00 8,6 6,5 7,2 6,8 6,5 6,2 10 6 21 11 W 1032,1 8 0 0,0
21.03.2019 01:00:00 8,7 7,1 7,8 7,1 6,5 6,2 8 4 15 8 WSW 1032,2 6 0 0,0
21.03.2019 00:00:00 9,0 7,2 8,5 7,2 6,5 6,2 12 7 20 11 WSW 1031,8 6 0 0,0
20.03.2019 23:00:00 9,0 7,5 8,4 7,3 6,4 6,2 13 7 22 12 WSW 1031,4 6 0 0,0
20.03.2019 22:00:00 9,1 7,7 8,3 7,4 6,4 6,2 11 6 26 14 W 1031,7 4,7 0 0,0
20.03.2019 21:00:00 9,3 7,6 8,5 7,4 6,4 6,2 16 9 29 16 WSW 1031,2 5 0 0,0
20.03.2019 20:00:00 9,8 6,7 9,2 7,4 6,3 6,2 20 11 37 20 W 1030,8 10 0 0,0
20.03.2019 19:00:00 10,2 6,0 9,5 7,5 6,3 6,2 23 12 36 20 WSW 1030,3 16 0 0,0
20.03.2019 18:00:00 10,5 5,4 9,9 7,8 6,2 6,2 20 11 41 22 WSW 1030,0 21 0 0,0
20.03.2019 17:00:00 10,9 4,9 10,4 8,2 6,1 6,2 23 12 39 21 WSW 1029,9 24 0 0,0
20.03.2019 16:00:00 10,9 4,5 10,8 8,7 5,9 6,2 27 15 41 22 WSW 1029,5 18 0 0,0
20.03.2019 15:00:00 10,9 4,3 10,9 8,8 5,5 6,2 21 11 42 23 WSW 1030,0 16 0 0,0
20.03.2019 14:00:00 11,4 4,2 12,0 9,5 5,1 6,2 28 15 46 25 WSW 1030,2 22 3 0,0
20.03.2019 13:00:00 10,7 3,2 11,6 9,4 4,6 6,2 29 16 39 21 SW 1030,4 16 11 0,0
20.03.2019 12:00:00 9,9 3,0 10,6 8,0 4,2 6,2 24 13 35 19 SW 1030,9 18 0 0,0
20.03.2019 11:00:00 8,8 2,0 9,8 6,7 3,8 6,2 16 9 33 18 SSW 1031,0 37 0 0,0
20.03.2019 10:00:00 7,6 1,4 8,0 3,8 3,7 6,2 21 11 29 16 SW 1031,3 22 55 0,0
20.03.2019 09:00:00 4,5 0,5 5,4 0,8 3,8 6,2 16 8 23 12 SSW 1031,0 15 60 0,0
20.03.2019 08:00:00 1,0 -1,0 0,5 0,8 3,9 6,2 11 6 16 9 S 1031,1 16 60 0,0

tt = temperature
td = dewpoint
tt 5cm = temperature 5cm
tt -5cm = temperature -5cm
tt -20cm = temperature -20cm
tt -100cm = temperature -100cm
ff = wind speed
fx = gusts
dd = wind direction
ppp = reduced air pressure
vv = visibility
sd = sunshine duration
rr = precipitation

Next stations